• In Germany
  • List of Countries
  • For 7 days
  • Water Temperature
  • Satellite Maps
  • Weather Map
  • Weather Widgets
  • user-avatar
    Login

    Hourly Weather Viedma

    Today, 20 January, Saturday

    Time Temperature Precipitation Wind Pressure Humidity
    00:00 +21°C° 0 mm 3 mps 757 mmHg 54%
    01:00 +21°C° 0 mm 3 mps 757 mmHg 57%
    02:00 +20°C° 0 mm 3 mps 756 mmHg 59%
    03:00 +20°C° 0 mm 3 mps 756 mmHg 60%
    04:00 +20°C° 0 mm 3 mps 756 mmHg 62%
    05:00 +20°C° 0 mm 3 mps 755 mmHg 63%
    06:00 +21°C° 0 mm 3 mps 756 mmHg 57%
    07:00 +24°C° 0 mm 3 mps 756 mmHg 51%
    08:00 +26°C° 0 mm 3 mps 756 mmHg 44%
    09:00 +28°C° 0 mm 2 mps 755 mmHg 39%
    10:00 +30°C° 0 mm 2 mps 755 mmHg 33%
    11:00 +32°C° 0 mm 1 mps 755 mmHg 27%
    12:00 +34°C° 0 mm 2 mps 755 mmHg 26%
    13:00 +34°C° 0 mm 3 mps 755 mmHg 26%
    14:00 +35°C° 0 mm 4 mps 754 mmHg 25%
    15:00 +34°C° 0 mm 5 mps 754 mmHg 27%
    16:00 +33°C° 0 mm 6 mps 754 mmHg 28%
    17:00 +32°C° 0 mm 6 mps 754 mmHg 30%
    18:00 +30°C° 0 mm 6 mps 754 mmHg 34%
    19:00 +28°C° 0 mm 6 mps 754 mmHg 38%
    20:00 +26°C° 0 mm 5 mps 754 mmHg 42%
    21:00 +26°C° 0 mm 5 mps 754 mmHg 45%
    22:00 +25°C° 0 mm 5 mps 754 mmHg 47%
    23:00 +23°C° 0 mm 5 mps 755 mmHg 50%

    Tomorrow, 21 January, Sunday

    Time Temperature Precipitation Wind Pressure Humidity
    00:00 +23°C° 0 mm 4 mps 754 mmHg 53%
    01:00 +24°C° 0 mm 3 mps 754 mmHg 57%
    02:00 +22°C° 0 mm 3 mps 754 mmHg 60%
    03:00 +22°C° 0 mm 3 mps 753 mmHg 62%
    04:00 +22°C° 0 mm 3 mps 753 mmHg 64%
    05:00 +21°C° 0 mm 2 mps 753 mmHg 66%
    06:00 +24°C° 0.1 mm 3 mps 753 mmHg 59%
    07:00 +25°C° 0.1 mm 3 mps 753 mmHg 52%
    08:00 +26°C° 0.1 mm 4 mps 753 mmHg 46%
    09:00 +28°C° 0.1 mm 4 mps 753 mmHg 40%
    10:00 +32°C° 0.1 mm 4 mps 753 mmHg 34%
    11:00 +34°C° 0.1 mm 5 mps 752 mmHg 27%
    12:00 +35°C° 0 mm 5 mps 752 mmHg 26%
    13:00 +36°C° 0 mm 5 mps 751 mmHg 24%
    14:00 +37°C° 0 mm 5 mps 751 mmHg 22%
    15:00 +37°C° 0 mm 5 mps 750 mmHg 22%
    16:00 +38°C° 0 mm 6 mps 749 mmHg 23%
    17:00 +36°C° 0 mm 6 mps 749 mmHg 23%
    18:00 +34°C° 0 mm 7 mps 749 mmHg 27%
    19:00 +32°C° 0 mm 7 mps 749 mmHg 30%
    20:00 +29°C° 0 mm 8 mps 748 mmHg 33%
    21:00 +28°C° 0 mm 8 mps 748 mmHg 36%
    22:00 +28°C° 0 mm 8 mps 748 mmHg 38%
    23:00 +27°C° 0 mm 8 mps 748 mmHg 40%

    Day after tomorrow, 22 January, Monday

    Time Temperature Precipitation Wind Pressure Humidity
    00:00 +27°C° 0 mm 7 mps 748 mmHg 41%
    01:00 +27°C° 0 mm 7 mps 747 mmHg 42%
    02:00 +27°C° 0 mm 6 mps 747 mmHg 43%
    03:00 +28°C° 0 mm 6 mps 747 mmHg 42%
    04:00 +28°C° 0 mm 6 mps 746 mmHg 41%
    05:00 +28°C° 0 mm 5 mps 746 mmHg 40%
    06:00 +30°C° 0.1 mm 5 mps 746 mmHg 37%
    07:00 +33°C° 0.1 mm 5 mps 746 mmHg 34%
    08:00 +34°C° 0.1 mm 6 mps 746 mmHg 31%
    09:00 +35°C° 0 mm 6 mps 746 mmHg 30%
    10:00 +36°C° 0 mm 6 mps 746 mmHg 29%
    11:00 +36°C° 0 mm 6 mps 746 mmHg 28%
    12:00 +35°C° 0 mm 7 mps 746 mmHg 31%
    13:00 +34°C° 0 mm 8 mps 746 mmHg 33%
    14:00 +32°C° 0 mm 9 mps 746 mmHg 36%
    15:00 +31°C° 0 mm 9 mps 746 mmHg 37%
    16:00 +28°C° 0 mm 9 mps 746 mmHg 39%
    17:00 +27°C° 0 mm 9 mps 746 mmHg 41%
    18:00 +26°C° 0 mm 8 mps 747 mmHg 43%
    19:00 +24°C° 0 mm 8 mps 747 mmHg 46%
    20:00 +22°C° 0 mm 7 mps 748 mmHg 49%
    21:00 +22°C° 0 mm 7 mps 748 mmHg 49%
    22:00 +22°C° 0 mm 6 mps 748 mmHg 49%
    23:00 +22°C° 0 mm 5 mps 749 mmHg 50%

    23 January, Tuesday

    Time Temperature Precipitation Wind Pressure Humidity
    00:00 +22°C° 0 mm 4 mps 749 mmHg 52%
    01:00 +22°C° 0 mm 4 mps 748 mmHg 54%
    02:00 +21°C° 0 mm 3 mps 748 mmHg 57%
    03:00 +21°C° 0 mm 3 mps 749 mmHg 61%
    04:00 +20°C° 0 mm 3 mps 749 mmHg 64%
    05:00 +20°C° 0 mm 3 mps 749 mmHg 68%
    06:00 +21°C° 0 mm 3 mps 750 mmHg 62%
    07:00 +22°C° 0 mm 4 mps 750 mmHg 56%
    08:00 +23°C° 0 mm 4 mps 750 mmHg 49%
    09:00 +25°C° 0 mm 5 mps 750 mmHg 46%
    10:00 +26°C° 0 mm 5 mps 751 mmHg 43%
    11:00 +28°C° 0 mm 6 mps 751 mmHg 39%
    12:00 +28°C° 0 mm 6 mps 751 mmHg 40%
    13:00 +28°C° 0 mm 7 mps 751 mmHg 40%
    14:00 +28°C° 0 mm 7 mps 751 mmHg 41%
    15:00 +27°C° 0 mm 8 mps 751 mmHg 44%
    16:00 +26°C° 0 mm 8 mps 752 mmHg 47%
    17:00 +23°C° 0 mm 9 mps 752 mmHg 50%
    18:00 +22°C° 0 mm 8 mps 753 mmHg 54%
    19:00 +21°C° 0 mm 7 mps 753 mmHg 58%
    20:00 +20°C° 0 mm 6 mps 754 mmHg 62%
    21:00 +20°C° 0 mm 7 mps 755 mmHg 64%
    22:00 +20°C° 0 mm 7 mps 756 mmHg 65%
    23:00 +18°C° 0 mm 7 mps 756 mmHg 66%

    24 January, Wednesday

    Time Temperature Precipitation Wind Pressure Humidity
    00:00 +18°C° 0 mm 8 mps 757 mmHg 67%
    01:00 +17°C° 0 mm 8 mps 757 mmHg 68%
    02:00 +17°C° 0 mm 9 mps 758 mmHg 70%
    03:00 +17°C° 0 mm 9 mps 759 mmHg 66%
    04:00 +16°C° 0 mm 9 mps 759 mmHg 63%
    05:00 +16°C° 0 mm 8 mps 760 mmHg 60%
    06:00 +17°C° 0 mm 9 mps 761 mmHg 57%
    07:00 +17°C° 0 mm 9 mps 761 mmHg 53%
    08:00 +18°C° 0 mm 9 mps 762 mmHg 50%
    09:00 +18°C° 0 mm 9 mps 762 mmHg 47%
    10:00 +19°C° 0 mm 9 mps 763 mmHg 44%
    11:00 +19°C° 0 mm 9 mps 763 mmHg 41%
    12:00 +21°C° 0 mm 9 mps 763 mmHg 39%
    13:00 +21°C° 0 mm 9 mps 763 mmHg 38%
    14:00 +21°C° 0 mm 9 mps 763 mmHg 36%
    15:00 +20°C° 0 mm 8 mps 763 mmHg 38%
    16:00 +20°C° 0 mm 8 mps 763 mmHg 40%
    17:00 +18°C° 0 mm 8 mps 763 mmHg 42%
    18:00 +17°C° 0 mm 7 mps 764 mmHg 46%
    19:00 +16°C° 0 mm 6 mps 764 mmHg 50%
    20:00 +15°C° 0 mm 6 mps 764 mmHg 55%
    21:00 +15°C° 0 mm 5 mps 764 mmHg 56%
    22:00 +15°C° 0 mm 4 mps 764 mmHg 58%
    23:00 +16°C° 0 mm 3 mps 764 mmHg 60%

    25 January, Thursday

    Time Temperature Precipitation Wind Pressure Humidity
    00:00 +14°C° 0 mm 3 mps 764 mmHg 61%
    01:00 +14°C° 0 mm 3 mps 764 mmHg 62%
    02:00 +15°C° 0 mm 2 mps 763 mmHg 63%
    03:00 +14°C° 0 mm 3 mps 763 mmHg 64%
    04:00 +13°C° 0 mm 3 mps 763 mmHg 66%
    05:00 +13°C° 0 mm 3 mps 763 mmHg 67%
    06:00 +14°C° 0 mm 3 mps 763 mmHg 62%
    07:00 +17°C° 0 mm 4 mps 763 mmHg 57%
    08:00 +17°C° 0 mm 5 mps 763 mmHg 52%
    09:00 +19°C° 0 mm 4 mps 763 mmHg 47%
    10:00 +21°C° 0 mm 4 mps 762 mmHg 42%
    11:00 +22°C° 0 mm 4 mps 762 mmHg 37%
    12:00 +23°C° 0 mm 5 mps 762 mmHg 35%
    13:00 +25°C° 0 mm 5 mps 761 mmHg 33%
    14:00 +26°C° 0 mm 5 mps 760 mmHg 32%
    15:00 +24°C° 0 mm 6 mps 760 mmHg 35%
    16:00 +24°C° 0 mm 7 mps 759 mmHg 39%
    17:00 +23°C° 0 mm 8 mps 759 mmHg 42%
    18:00 +22°C° 0.1 mm 8 mps 759 mmHg 48%
    19:00 +20°C° 0.1 mm 8 mps 759 mmHg 55%
    20:00 +18°C° 0.1 mm 8 mps 758 mmHg 61%
    21:00 +18°C° 0.1 mm 8 mps 758 mmHg 63%
    22:00 +18°C° 0.1 mm 8 mps 758 mmHg 65%
    23:00 +18°C° 0.1 mm 7 mps 758 mmHg 67%
    Show more